Regional Weather Roundup
Issued by NWS

Home | Current Version | Previous Version | Text Only | Print | Product List | Glossary Off
Versions: 1 2 3 4 5 6 7 8 9 10 11 12 13 14 15 16 17 18 19 20 21 22 23 24 25 26 27 28 29 30 31 32 33 34 35 36 37 38 39 40 41 42 43 44 45 46 47 48 49 50

000
ASUS43 KLMK 310310
RWRKY
KENTUCKY REGIONAL WEATHER ROUNDUP
NATIONAL WEATHER SERVICE LOUISVILLE KY
1100 PM EDT MON MAY 30 2016

NOTE "FAIR" INDICATES FEW OR NO CLOUDS BELOW 12,000 FEET
WITH NO SIGNIFICANT WEATHER AND/OR OBSTRUCTIONS TO VISIBILITY.

KYZ001>023-026-027-061>063-070>075-310400-
WESTERN AND SOUTH CENTRAL KENTUCKY

CITY           SKY/WX    TMP DP  RH WIND       PRES   REMARKS
PADUCAH        CLEAR     70  62  76 CALM      29.97S
HENDERSON      CLOUDY    72  63  73 CALM      29.97S
OWENSBORO      MOCLDY    76  64  66 CALM      29.99R
HOPKINSVILLE   NOT AVBL
BOWLING GREEN  CLOUDY    73  59  61 CALM      29.99R
GLASGOW        CLOUDY    68  62  82 CALM      29.99S
$$

KYZ024-025-028>034-038-045-046-053-310400-
NORTH CENTRAL KENTUCKY

CITY           SKY/WX    TMP DP  RH WIND       PRES   REMARKS
LOUISVILLE/SDF PTCLDY    80  56  43 CALM      29.98R
LOUISVILLE/LOU CLEAR     75  60  59 CALM      29.99R
FORT KNOX      CLEAR     67  60  78 CALM      29.98R
$$

KYZ035>037-039>044-047>052-055>060-089>105-310400-
NORTHEAST KENTUCKY

CITY           SKY/WX    TMP DP  RH WIND       PRES   REMARKS
LEXINGTON      CLEAR     69  60  73 SE3       30.02R
COVINGTON      PTCLDY    68  58  70 SE3       30.00R
FRANKFORT      CLEAR     68  59  73 N3        29.99R
$$

KYZ054-064>069-076>088-106>120-310400-
SOUTHEAST KENTUCKY

CITY           SKY/WX    TMP DP  RH WIND       PRES   REMARKS
JACKSON        CLEAR     72  59  63 CALM      30.03R
LONDON         CLEAR     69  62  78 CALM      30.02R
SOMERSET       CLEAR     66  61  82 CALM      30.02S
MIDDLESBORO    CLEAR     68  64  84 CALM      30.03R
MONTICELLO     NOT AVBL
$$





USA.gov is the U.S. government's official web portal to all federal, state and local government web resources and services.